Retour au catalogue

ONEWEB-0589

ActifCommunicationsPO
NORAD 54655·PAYLOAD·🇬🇧 United Kingdom

Lancé Dec 8, 2022 depuis Cape Canaveral Space Force Station

Loading…

Prochains Passages (prochaines 24 heures)

TLE

FraisSource: CelesTrak SupGP

Époque: Sep 14, 2026, 18:04 UTC

1 54655C 22166P   26257.75326806  .00003066  00000+0  74333-2 0  2574
2 54655  87.9277 226.1483 0002697  98.2599 297.9461 13.21824123    15

Suivez ONEWEB-0589 en temps réel avec AllMySat

Download on the App Store